{"data":{"norad_id":57256,"intl_designator":"2023-094AQ","name":"STARLINK-5512","alt_names":[],"object_type":"PAYLOAD","status":"ACTIVE","operator":null,"country":"US","launch_date":"2023-07-07","launch_site_code":"AFWTR","launch_vehicle":null,"mission":null,"orbit_class":"UNKNOWN","rcs_meters":null,"size_class":null,"mass_kg":null,"dimensions":null,"purposes":["comms"],"wikipedia_slug":null,"has_3d_model":false,"image_url":null,"decayed_at":null,"tle_current":{"epoch":"2026-09-20T13:35:39.921792Z","epoch_age_seconds":118527,"freshness":"FRESH","line1":"1 57256U 23094AQ  26263.56643428  .00000018  00000+0  10167-4 0  9997","line2":"2 57256  43.0034 359.3540 0001323 272.7923  87.2777 15.27575336177042","mean_motion":15.27575336,"eccentricity":0.0001323,"inclination_deg":43.0034,"raan_deg":359.354,"arg_perigee_deg":272.7923,"mean_anomaly_deg":87.2777,"bstar":1.0167e-5,"rev_number":17704,"period_min":94.26703652932,"perigee_km":482.15532500088,"apogee_km":483.97079853722,"semimajor_km":6861.2000617691,"source":"CELESTRAK","updated_at":"2026-09-21T09:00:33.592463Z"}}}